CW8944 Weather Reports


time (UTC)temp
C
wind
direction
speed
KPH
gust
KPH
rain 1hr
cm
rain 24hr
cm
rain mn
cm
humidity
%
barometer
mb
20260507051009 10 238 4.8 11.3 0.00 0.81 0.00 90 1004.5
20260507050512 10 0 0.0 0.0 0.00 0.81 0.00 91 1004.7
20260507050031 10 0 0.0 9.7 0.00 0.81 0.00 91 1004.7
20260507045512 10 0 3.2 12.9 0.00 0.81 0.00 91 1005.0
20260507045015 10 239 3.2 12.9 0.00 0.81 0.00 91 1005.2
20260507044532 10 250 3.2 12.9 0.03 0.81 0.00 91 1005.1
20260507044010 10 0 0.0 12.9 0.03 0.81 0.00 92 1004.9
20260507043514 10 0 0.0 6.4 0.03 0.81 0.00 92 1004.8
20260507043029 10 0 0.0 9.7 0.03 0.81 0.00 92 1004.9
20260507042512 11 0 1.6 9.7 0.03 0.81 0.00 92 1004.8
20260507042014 11 0 0.0 9.7 0.03 0.81 0.00 92 1004.9
20260507041530 11 0 1.6 9.7 0.03 0.81 0.00 92 1004.8
20260507041010 11 0 0.0 8.0 0.03 0.81 0.00 92 1004.8
20260507040510 11 0 0.0 8.0 0.03 0.81 0.00 92 1004.6
20260507040032 12 0 0.0 9.7 0.03 0.81 0.00 93 1004.6
20260507035512 12 281 3.2 9.7 0.03 0.81 0.81 93 1004.4
20260507035010 12 0 3.2 9.7 0.03 0.81 0.81 93 1004.5
20260507034535 12 0 0.0 0.0 0.00 0.79 0.79 93 1004.7
20260507034012 12 0 0.0 0.0 0.00 0.79 0.79 93 1004.5
20260507033511 12 0 0.0 9.7 0.00 0.79 0.79 93 1004.6
20260507033034 13 0 0.0 14.5 0.03 0.79 0.79 93 1004.6
20260507032516 13 0 6.4 14.5 0.03 0.79 0.79 93 1004.5
20260507032014 13 0 0.0 11.3 0.03 0.79 0.79 94 1004.6
20260507031529 13 0 0.0 11.3 0.03 0.79 0.79 94 1004.5
20260507031012 13 0 1.6 6.4 0.03 0.79 0.79 94 1004.5
20260507030517 13 283 0.0 6.4 0.03 0.79 0.79 94 1004.3
20260507030030 13 0 0.0 9.7 0.03 0.79 0.79 94 1004.3
20260507025511 14 0 0.0 9.7 0.03 0.79 0.79 94 1004.3
20260507025015 14 332 1.6 9.7 0.03 0.79 0.79 94 1004.1
20260507024532 15 257 0.0 9.7 0.03 0.79 0.79 94 1004.0
20260507024009 15 0 0.0 9.7 0.03 0.79 0.79 94 1004.0
20260507023513 15 294 4.8 9.7 0.03 0.79 0.79 94 1004.0
20260507023030 15 246 1.6 9.7 0.00 0.76 0.76 94 1003.9
20260507022510 15 241 4.8 9.7 0.00 0.76 0.76 94 1003.9
20260507022015 15 237 3.2 9.7 0.00 0.76 0.76 94 1003.7
20260507021530 15 0 1.6 9.7 0.00 0.76 0.76 94 1003.7
20260507021011 15 221 3.2 12.9 0.00 0.76 0.76 94 1003.8
20260507020513 15 193 3.2 12.9 0.00 0.76 0.76 94 1003.9
20260507020045 15 0 0.0 12.9 0.00 0.76 0.76 94 1003.8
20260507015510 15 233 3.2 12.9 0.00 0.76 0.76 94 1004.0
20260507015009 15 198 1.6 9.7 0.00 0.76 0.76 94 1003.9
20260507014534 15 245 1.6 16.1 0.00 0.76 0.76 94 1004.1
20260507014010 15 250 6.4 16.1 0.00 0.76 0.76 94 1004.1
20260507013508 15 225 1.6 12.9 0.00 0.76 0.76 94 1004.0
20260507013029 15 212 4.8 12.9 0.00 0.76 0.76 94 1004.0
20260507012509 15 228 4.8 12.9 0.00 0.76 0.76 94 1004.0
20260507012009 15 195 3.2 9.7 0.00 0.76 0.76 94 1004.1
20260507011541 15 235 3.2 9.7 0.00 0.76 0.76 94 1004.0
20260507011010 15 201 3.2 11.3 0.00 0.76 0.76 94 1004.0
20260507010513 15 269 1.6 11.3 0.00 0.76 0.76 94 1004.1
20260507010034 15 197 3.2 11.3 0.00 0.76 0.76 94 1004.0
20260507005511 15 197 3.2 12.9 0.00 0.76 0.76 94 1004.0
20260507005010 15 196 4.8 12.9 0.00 0.76 0.76 94 1004.0
20260507004531 15 227 3.2 9.7 0.00 0.76 0.76 94 1004.2
20260507004010 15 0 3.2 9.7 0.00 0.76 0.76 94 1004.0
20260507003515 15 249 0.0 12.9 0.00 0.76 0.76 94 1004.1
20260507003030 15 0 4.8 12.9 0.00 0.76 0.76 94 1004.0
20260507002509 15 205 4.8 11.3 0.00 0.76 0.76 94 1004.1
20260507002015 15 193 4.8 17.7 0.00 0.76 0.76 94 1003.9
20260507001602 15 0 3.2 17.7 0.00 0.76 0.76 94 1003.9
20260507001009 15 224 3.2 12.9 0.00 0.76 0.76 94 1003.9
20260507000514 15 182 4.8 12.9 0.00 0.76 0.76 94 1003.9
20260507000040 15 0 4.8 12.9 0.00 0.76 0.76 94 1003.9
20260506235511 15 256 6.4 12.9 0.00 0.76 0.76 94 1003.9
20260506235014 15 255 4.8 12.9 0.00 0.76 0.76 94 1003.8
20260506234531 15 196 3.2 17.7 0.00 0.76 0.76 94 1003.8
20260506234010 15 271 6.4 17.7 0.00 0.76 0.76 94 1003.8
20260506233510 15 191 4.8 17.7 0.00 0.76 0.76 94 1003.9
20260506233030 15 190 4.8 17.7 0.00 0.76 0.76 94 1003.8
20260506232510 15 194 9.7 17.7 0.00 0.76 0.76 94 1003.9
20260506232012 15 249 3.2 16.1 0.00 0.76 0.76 94 1003.9
20260506231531 15 205 3.2 14.5 0.00 0.76 0.76 94 1004.0
20260506231009 15 196 8.0 14.5 0.00 0.76 0.76 94 1003.9
20260506230517 15 201 3.2 14.5 0.00 0.76 0.76 94 1003.9
20260506230047 15 0 6.4 14.5 0.00 0.76 0.76 94 1003.9
20260506225509 15 172 4.8 16.1 0.03 0.76 0.76 94 1003.9
20260506225013 15 200 6.4 20.9 0.03 0.76 0.76 94 1003.9
20260506224530 15 234 9.7 24.1 0.03 0.76 0.76 94 1004.0
20260506224011 15 251 9.7 24.1 0.03 0.76 0.76 94 1004.1
20260506223512 15 195 4.8 19.3 0.05 0.76 0.76 94 1004.1
20260506223033 15 191 8.0 19.3 0.05 0.76 0.76 93 1004.2
20260506222513 15 193 8.0 17.7 0.05 0.76 0.76 93 1004.3
20260506222011 15 200 6.4 25.7 0.08 0.76 0.76 94 1004.3
20260506221530 15 202 9.7 25.7 0.08 0.76 0.76 94 1004.4
20260506221009 15 224 6.4 22.5 0.08 0.76 0.76 93 1004.4
20260506220510 15 206 9.7 22.5 0.08 0.76 0.76 93 1004.4
20260506220035 15 203 11.3 20.9 0.10 0.76 0.76 93 1004.4
20260506215510 15 200 6.4 24.1 0.08 0.74 0.74 93 1004.5
20260506215011 15 207 9.7 24.1 0.08 0.74 0.74 93 1004.5
20260506214529 15 213 11.3 24.1 0.10 0.74 0.74 93 1004.5
20260506214010 16 194 9.7 22.5 0.10 0.74 0.74 93 1004.5
20260506213515 16 186 4.8 16.1 0.08 0.71 0.71 93 1004.5
20260506213028 16 184 8.0 17.7 0.10 0.71 0.71 93 1004.6
20260506212508 16 192 8.0 19.3 0.10 0.69 0.69 93 1004.5
20260506212017 16 198 6.4 24.1 0.10 0.69 0.69 93 1004.7
20260506211530 16 199 4.8 24.1 0.13 0.69 0.69 93 1004.7
20260506211009 16 210 8.0 24.1 0.15 0.69 0.69 93 1004.7
20260506210517 16 198 1.6 12.9 0.18 0.69 0.69 93 1004.7
20260506210047 16 0 4.8 20.9 0.15 0.66 0.66 93 1004.7
20260506205508 16 186 9.7 20.9 0.15 0.66 0.66 93 1004.7
20260506205017 16 200 3.2 12.9 0.15 0.66 0.66 93 1004.8
20260506204530 16 181 3.2 11.3 0.13 0.64 0.64 93 1004.9
20260506204010 16 0 0.0 0.0 0.15 0.64 0.64 92 1005.0
20260506203514 16 0 0.0 6.4 0.15 0.64 0.64 92 1005.0
20260506203031 16 0 0.0 6.4 0.13 0.61 0.61 92 1005.0
20260506202509 16 0 0.0 0.0 0.10 0.58 0.58 92 1005.1
20260506202015 16 0 0.0 0.0 0.10 0.56 0.56 92 1005.0
20260506201530 16 0 0.0 0.0 0.10 0.56 0.56 92 1005.0
20260506201009 16 0 0.0 0.0 0.08 0.53 0.53 92 1005.0
20260506200511 16 0 0.0 0.0 0.08 0.51 0.51 92 1004.9
20260506200032 16 0 0.0 0.0 0.10 0.51 0.51 91 1004.9
20260506195511 16 0 0.0 0.0 0.13 0.51 0.51 91 1004.8
20260506195011 16 0 0.0 6.4 0.18 0.51 0.51 91 1004.8
20260506194528 16 0 0.0 6.4 0.20 0.51 0.51 91 1004.8
20260506194010 16 0 0.0 4.8 0.23 0.48 0.48 91 1004.9
20260506193511 16 0 0.0 11.3 0.23 0.48 0.48 91 1005.0
20260506193036 16 0 3.2 11.3 0.25 0.48 0.48 90 1005.1
20260506192510 16 205 1.6 8.0 0.25 0.48 0.48 90 1005.2
20260506192010 16 0 0.0 6.4 0.25 0.46 0.46 90 1005.2
20260506191530 16 240 0.0 8.0 0.30 0.46 0.46 90 1005.3
20260506191010 16 240 1.6 8.0 0.33 0.43 0.43 90 1005.5
20260506190511 16 240 0.0 14.5 0.36 0.43 0.43 90 1005.6
20260506190033 16 0 3.2 14.5 0.41 0.41 0.41 89 1005.7
20260506185514 16 250 4.8 14.5 0.38 0.38 0.38 89 1005.8
20260506185012 16 247 4.8 14.5 0.33 0.33 0.33 88 1005.7
20260506184537 17 242 3.2 9.7 0.28 0.28 0.28 88 1005.6
20260506184010 17 224 3.2 8.0 0.25 0.25 0.25 87 1005.6
20260506183512 17 235 3.2 9.7 0.23 0.23 0.23 86 1005.7
20260506183030 17 0 1.6 11.3 0.23 0.23 0.23 85 1005.6
20260506182511 17 229 3.2 16.1 0.23 0.23 0.23 84 1005.6
20260506182013 17 243 6.4 16.1 0.18 0.18 0.18 83 1005.8
20260506181539 17 258 4.8 20.9 0.15 0.15 0.15 81 1006.1
20260506181010 18 231 9.7 20.9 0.10 0.10 0.10 77 1006.0
20260506180519 19 230 6.4 20.9 0.05 0.05 0.05 73 1005.9
20260506180030 20 263 6.4 20.9 0.00 0.00 0.00 69 1005.6
20260506175511 21 240 4.8 17.7 0.00 0.00 0.00 64 1005.4
20260506175009 21 214 6.4 27.4 0.00 0.00 0.00 61 1005.2
20260506174535 21 198 8.0 27.4 0.00 0.00 0.00 59 1005.1
20260506174013 21 210 9.7 27.4 0.00 0.00 0.00 59 1005.1
20260506173512 21 207 9.7 27.4 0.00 0.00 0.00 59 1005.0
20260506173032 21 233 16.1 27.4 0.00 0.00 0.00 59 1005.2
20260506172512 21 221 4.8 24.1 0.00 0.00 0.00 60 1005.3
20260506172014 21 259 9.7 29.0 0.00 0.00 0.00 59 1005.2
20260506171533 21 262 8.0 29.0 0.00 0.00 0.00 60 1005.2
20260506171013 21 244 9.7 25.7 0.00 0.00 0.00 60 1005.5
20260506170514 21 225 9.7 29.0 0.00 0.00 0.00 59 1005.5
20260506170037 21 186 11.3 29.0 0.00 0.00 0.00 60 1005.6
20260506165512 21 231 9.7 29.0 0.00 0.00 0.00 61 1005.6
20260506165013 21 198 9.7 29.0 0.00 0.00 0.00 61 1005.6
20260506164546 21 259 8.0 27.4 0.00 0.00 0.00 61 1005.8
20260506164011 21 193 9.7 20.9 0.00 0.00 0.00 62 1005.9
20260506163513 21 191 8.0 32.2 0.00 0.00 0.00 62 1005.9
20260506163035 21 217 14.5 32.2 0.00 0.00 0.00 61 1005.9
20260506162511 21 193 9.7 22.5 0.00 0.00 0.00 62 1006.2
20260506162011 21 205 9.7 22.5 0.00 0.00 0.00 62 1006.3
20260506161530 21 206 11.3 25.7 0.00 0.00 0.00 63 1006.2
20260506161015 21 174 12.9 25.7 0.00 0.00 0.00 63 1006.6
20260506160513 21 257 6.4 22.5 0.00 0.00 0.00 63 1006.8
20260506160034 20 191 6.4 22.5 0.00 0.00 0.00 64 1006.9
20260506155514 20 200 9.7 22.5 0.00 0.00 0.00 65 1007.1
20260506155013 20 205 6.4 20.9 0.00 0.00 0.00 65 1007.1
20260506154533 20 195 6.4 20.9 0.00 0.00 0.00 66 1007.2
20260506154014 20 197 6.4 19.3 0.00 0.00 0.00 66 1007.3
20260506153514 20 235 8.0 19.3 0.00 0.00 0.00 66 1007.6
20260506153032 20 206 4.8 19.3 0.00 0.00 0.00 67 1007.5
20260506152510 20 225 8.0 20.9 0.00 0.00 0.00 67 1007.5
20260506152015 20 226 6.4 20.9 0.00 0.00 0.00 68 1007.5
20260506151533 20 244 8.0 19.3 0.00 0.00 0.00 68 1007.3
20260506151011 19 219 8.0 22.5 0.00 0.00 0.00 69 1007.2
20260506150513 19 231 8.0 22.5 0.00 0.00 0.00 69 1007.5
20260506150104 19 233 4.8 20.9 0.00 0.00 0.00 69 1007.7
20260506145508 19 248 8.0 25.7 0.00 0.00 0.00 69 1007.7
20260506145018 19 250 9.7 25.7 0.00 0.00 0.00 69 1007.5
20260506144530 19 193 4.8 19.3 0.00 0.00 0.00 70 1007.4
20260506144013 19 187 6.4 14.5 0.00 0.00 0.00 70 1007.5
20260506143517 19 181 6.4 16.1 0.00 0.00 0.00 70 1007.5
20260506143037 19 200 4.8 17.7 0.00 0.00 0.00 70 1007.4
20260506142513 19 212 6.4 25.7 0.00 0.00 0.00 70 1007.3
20260506142011 19 195 6.4 25.7 0.00 0.00 0.00 71 1007.2
20260506141540 18 195 6.4 19.3 0.00 0.00 0.00 71 1007.2
20260506141008 18 202 3.2 16.1 0.00 0.00 0.00 72 1007.3
20260506140512 18 231 4.8 17.7 0.00 0.00 0.00 72 1007.4
20260506140028 18 247 4.8 17.7 0.00 0.00 0.00 72 1007.5
20260506135508 18 206 6.4 14.5 0.00 0.00 0.00 72 1007.5
20260506135012 18 209 3.2 14.5 0.00 0.00 0.00 73 1007.5
20260506134530 18 0 1.6 11.3 0.00 0.00 0.00 73 1007.6
20260506134010 18 195 3.2 11.3 0.00 0.00 0.00 74 1007.6
20260506133514 18 199 3.2 11.3 0.00 0.00 0.00 74 1007.7
20260506133030 18 0 0.0 12.9 0.00 0.00 0.00 74 1007.7
20260506132511 18 0 0.0 12.9 0.00 0.00 0.00 74 1007.7
20260506132015 18 238 0.0 11.3 0.00 0.00 0.00 74 1007.7
20260506131529 17 241 4.8 16.1 0.00 0.00 0.00 74 1007.7
20260506131010 17 256 4.8 16.1 0.00 0.00 0.00 74 1007.8
20260506130514 17 243 3.2 14.5 0.00 0.00 0.00 75 1007.8
20260506130030 17 262 4.8 14.5 0.00 0.00 0.00 75 1007.9
20260506125514 17 229 3.2 11.3 0.00 0.00 0.00 75 1007.8
20260506125011 17 217 1.6 16.1 0.00 0.00 0.00 75 1007.7
20260506124529 17 228 3.2 16.1 0.00 0.00 0.00 75 1007.7
20260506124010 17 259 8.0 19.3 0.00 0.00 0.00 75 1007.7
20260506123511 17 195 4.8 19.3 0.00 0.00 0.00 75 1007.7
20260506123030 17 194 6.4 17.7 0.00 0.00 0.00 75 1007.7
20260506122509 17 233 6.4 17.7 0.00 0.00 0.00 75 1007.8
20260506122012 17 212 4.8 12.9 0.00 0.00 0.00 76 1008.0
20260506121530 17 0 4.8 12.9 0.00 0.00 0.00 76 1007.9
20260506121009 16 257 3.2 11.3 0.00 0.00 0.00 76 1008.0
20260506120511 16 220 4.8 11.3 0.00 0.00 0.00 77 1008.0
20260506120048 16 205 4.8 11.3 0.00 0.00 0.00 77 1008.1
20260506115511 16 205 4.8 14.5 0.00 0.00 0.00 77 1008.2
20260506115012 16 200 4.8 14.5 0.00 0.00 0.00 77 1008.1
20260506114534 16 250 4.8 14.5 0.00 0.00 0.00 77 1008.3
20260506114013 16 244 4.8 14.5 0.00 0.00 0.00 77 1008.3
20260506113511 16 248 6.4 14.5 0.00 0.00 0.00 77 1008.2
20260506113030 16 193 6.4 17.7 0.00 0.00 0.00 77 1008.2
20260506112510 16 0 3.2 17.7 0.00 0.00 0.00 77 1008.4
20260506112013 16 232 4.8 16.1 0.00 0.00 0.00 77 1008.3
20260506111531 16 200 8.0 16.1 0.00 0.00 0.00 77 1008.2
20260506111010 16 173 4.8 20.9 0.00 0.00 0.00 78 1008.4
20260506110510 16 203 3.2 20.9 0.00 0.00 0.00 78 1008.5
20260506110032 16 198 8.0 20.9 0.00 0.00 0.00 78 1008.3
20260506105517 15 200 6.4 17.7 0.00 0.00 0.00 78 1008.2
20260506105010 15 191 6.4 17.7 0.00 0.00 0.00 78 1008.3
20260506104539 15 198 9.7 17.7 0.00 0.00 0.00 78 1008.3
20260506104016 15 201 9.7 19.3 0.00 0.00 0.00 78 1008.3
20260506103510 15 181 6.4 19.3 0.00 0.00 0.00 78 1008.3
20260506103040 15 195 8.0 16.1 0.00 0.00 0.00 78 1008.3
20260506102516 15 187 4.8 16.1 0.00 0.00 0.00 78 1008.3
20260506102011 15 196 3.2 12.9 0.00 0.00 0.00 78 1008.2
20260506101532 15 188 4.8 11.3 0.00 0.00 0.00 78 1008.2
20260506101009 15 204 3.2 12.9 0.00 0.00 0.00 78 1008.3
20260506100511 15 257 3.2 14.5 0.00 0.00 0.00 78 1008.3
20260506100031 15 0 1.6 14.5 0.00 0.00 0.00 78 1008.4
20260506095509 15 0 3.2 11.3 0.00 0.00 0.00 78 1008.1
20260506095010 15 193 3.2 11.3 0.00 0.00 0.00 77 1008.2
20260506094530 15 0 0.0 0.0 0.00 0.00 0.00 77 1008.2
20260506094009 15 0 0.0 0.0 0.00 0.00 0.00 77 1008.2
20260506093511 15 0 0.0 0.0 0.00 0.00 0.00 77 1008.2
20260506093031 15 0 0.0 4.8 0.00 0.00 0.00 76 1008.4
20260506092509 15 0 0.0 4.8 0.00 0.00 0.00 76 1008.1
20260506092014 15 0 0.0 6.4 0.00 0.00 0.00 76 1008.2
20260506091530 15 205 0.0 6.4 0.00 0.00 0.00 76 1008.1
20260506091011 15 0 0.0 0.0 0.00 0.00 0.00 75 1008.1
20260506090512 15 0 0.0 0.0 0.00 0.00 0.00 75 1008.1
20260506090031 15 0 0.0 0.0 0.00 0.00 0.00 74 1008.0
20260506085508 15 0 0.0 4.8 0.00 0.00 0.00 74 1008.2
20260506085009 15 0 0.0 4.8 0.00 0.00 0.00 75 1008.1
20260506084606 15 0 0.0 4.8 0.00 0.00 0.00 74 1008.2
20260506084017 15 0 0.0 0.0 0.00 0.00 0.00 74 1008.2
20260506083514 15 0 0.0 0.0 0.00 0.00 0.00 74 1008.1
20260506083029 15 0 0.0 0.0 0.00 0.00 0.00 74 1008.2
20260506082510 15 0 0.0 0.0 0.00 0.00 0.00 73 1008.1
20260506082014 15 0 0.0 0.0 0.00 0.00 0.00 73 1008.1
20260506081540 15 0 0.0 0.0 0.00 0.00 0.00 72 1008.1
20260506081011 15 0 0.0 0.0 0.00 0.00 0.00 72 1008.1
20260506080511 15 0 0.0 0.0 0.00 0.00 0.00 71 1008.1
20260506073510 16 0 3.2 8.0 0.00 0.00 0.00 70 1007.8
20260506073030 16 0 0.0 0.0 0.00 0.00 0.00 70 1007.8
20260506072513 16 0 0.0 9.7 0.00 0.00 0.00 70 1007.7
20260506072013 16 0 0.0 9.7 0.00 0.00 0.00 70 1007.6
20260506071534 16 207 3.2 11.3 0.00 0.00 0.00 69 1007.7
20260506071012 16 210 3.2 11.3 0.00 0.00 0.00 69 1007.7
20260506070512 16 198 4.8 11.3 0.00 0.00 0.00 69 1007.5
20260506062512 16 0 3.2 12.9 0.00 0.00 0.00 67 1007.4
20260506062016 16 202 4.8 19.3 0.00 0.00 0.00 67 1007.4
20260506061530 16 204 3.2 19.3 0.00 0.00 0.00 67 1007.3
20260506061010 16 201 4.8 12.9 0.00 0.00 0.00 67 1007.5
20260506060515 16 195 3.2 11.3 0.00 0.00 0.00 67 1007.4